Location: Katwijk
(52.2000°N, 4.4170°E)
Time: 05:33:34
(UTC+01:00)

ISS - Visible Passes

Search period start: 13 February 2016 00:00
Search period end: 23 February 2016 00:00
Orbit: 398 x 408 km, 51.6° (Epoch: 12 February)

Date Brightness Start Highest point End Pass type
(mag) Time Alt. Az. Time Alt. Az. Time Alt. Az.
13 Feb -3.3 19:02:59 10° W 19:06:14 76° S 19:08:19 20° ESE visible
13 Feb -0.8 20:39:32 10° W 20:40:57 20° WSW 20:40:57 20° WSW visible
14 Feb -2.5 19:46:39 10° W 19:49:47 43° SSW 19:50:26 37° SSE visible
15 Feb -2.9 18:53:50 10° W 18:57:02 58° SSW 18:59:58 12° ESE visible
15 Feb -0.9 20:30:42 10° W 20:32:37 18° SW 20:32:37 18° SW visible
16 Feb -1.6 19:37:34 10° W 19:40:23 27° SSW 19:42:12 16° SSE visible
17 Feb -2.1 18:44:35 10° W 18:47:39 39° SSW 18:50:42 10° SE visible
17 Feb -0.3 20:22:49 10° SW 20:23:24 10° SW 20:24:00 10° SSW visible
18 Feb -0.6 19:28:38 10° WSW 19:30:46 16° SW 19:32:54 10° S visible
19 Feb -1.1 18:35:20 10° W 18:38:02 24° SSW 18:40:45 10° SSE visible
